Location: ??
(35.1714°N, 128.2806°E)
Time: 15:25:11
(UTC+00:00)

Cosmos 1833 Rocket - Pass Details

Date: 29 October 2020
Orbit: 832 x 840 km, 71.0° (Epoch: 01 December)

Event Time Altitude Azimuth Distance (km) Brightness Sun altitude
Exits shadow 20:16:20 20° 322° (NW) 1,844 4.1 -18.9°
Drops below altitude 10° 20:19:18 10° 352° (N) 2,460 5.0 -18.3°
Sets 20:22:20 0° 8° (N) 3,399 5.9 -17.7°
